DL8FX-6 Weather Reports


Display with metric or nautical units.
time (UTC)temp
F
wind
direction
speed
MPH
gust
MPH
rain 1hr
in
rain 24hr
in
rain mn
in
humidity
%
barometer
mb
20200531164021 68 90 1.0 4.0 0.00 0.00 0.00 44 1019.7
20200531163017 69 289 2.0 8.0 0.00 0.00 0.00 44 1019.9
20200531162113 71 29 0.0 2.0 0.00 0.00 0.00 43 1019.7
20200531161109 72 225 2.0 4.0 0.00 0.00 0.00 40 1019.6
20200531160105 74 270 0.0 2.0 0.00 0.00 0.00 36 1019.5
20200531155101 75 90 2.0 3.0 0.00 0.00 0.00 35 1019.4
20200531154057 74 356 2.0 4.0 0.00 0.00 0.00 36 1019.5
20200531153054 75 241 1.0 4.0 0.00 0.00 0.00 35 1019.6
20200531152050 77 267 3.0 5.0 0.00 0.00 0.00 33 1019.6
20200531151046 78 328 2.0 7.0 0.00 0.00 0.00 34 1019.5
20200531150042 79 147 2.0 6.0 0.00 0.00 0.00 32 1019.5
20200531145038 80 0 1.0 4.0 0.00 0.00 0.00 33 1019.5
20200531144033 79 149 2.0 5.0 0.00 0.00 0.00 33 1019.4
20200531143029 79 153 2.0 6.0 0.00 0.00 0.00 35 1019.4
20200531142029 80 0 1.0 2.0 0.00 0.00 0.00 35 1019.4
20200531141021 80 180 1.0 4.0 0.00 0.00 0.00 34 1019.4
20200531140017 79 0.0 2.0 0.00 0.00 0.00 35 1019.3
20200531135114 79 257 1.0 3.0 0.00 0.00 0.00 34 1019.3
20200531134110 80 1.0 4.0 0.00 0.00 0.00 35 1019.4
20200531133106 79 14 2.0 5.0 0.00 0.00 0.00 34 1019.4
20200531132102 78 259 1.0 2.0 0.00 0.00 0.00 34 1019.5
20200531131059 79 281 3.0 5.0 0.00 0.00 0.00 33 1019.5
20200531130055 79 2.0 6.0 0.00 0.00 0.00 34 1019.5
20200531125051 78 270 1.0 5.0 0.00 0.00 0.00 34 1019.5
20200531124047 79 175 1.0 8.0 0.00 0.00 0.00 36 1019.7
20200531123043 79 270 1.0 8.0 0.00 0.00 0.00 36 1019.6
20200531122039 77 232 1.0 4.0 0.00 0.00 0.00 37 1019.6
20200531121035 77 135 1.0 7.0 0.00 0.00 0.00 36 1019.7
20200531120030 77 225 1.0 4.0 0.00 0.00 0.00 39 1019.7
20200531115027 77 0 1.0 2.0 0.00 0.00 0.00 36 1019.7
20200531114023 78 311 1.0 2.0 0.00 0.00 0.00 37 1019.7
20200531113019 77 180 2.0 4.0 0.00 0.00 0.00 38 1019.8
20200531112115 78 331 1.0 2.0 0.00 0.00 0.00 39 1019.8
20200531111111 77 180 1.0 4.0 0.00 0.00 0.00 40 1019.8
20200531110107 76 27 2.0 6.0 0.00 0.00 0.00 39 1020.0
20200531105103 77 81 3.0 4.0 0.00 0.00 0.00 38 1020.0
20200531104100 76 0 1.0 4.0 0.00 0.00 0.00 39 1020.1
20200531103056 77 0 1.0 5.0 0.00 0.00 0.00 41 1020.1
20200531102052 76 0 1.0 2.0 0.00 0.00 0.00 42 1020.1
20200531101048 76 246 1.0 4.0 0.00 0.00 0.00 43 1020.2
20200531100044 75 225 0.0 2.0 0.00 0.00 0.00 44 1020.2
20200531095040 74 315 1.0 4.0 0.00 0.00 0.00 44 1020.1
20200531094036 73 264 1.0 4.0 0.00 0.00 0.00 44 1020.2
20200531093032 72 236 2.0 4.0 0.00 0.00 0.00 50 1020.3
20200531092029 70 224 1.0 2.0 0.00 0.00 0.00 51 1020.3
20200531091025 68 269 1.0 4.0 0.00 0.00 0.00 56 1020.5
20200531090021 65 270 0.0 2.0 0.00 0.00 0.00 61 1020.5
20200531085017 64 0.0 2.0 0.00 0.00 0.00 60 1020.5
20200531084114 63 0.0 2.0 0.00 0.00 0.00 66 1020.7
20200531083109 62 0.0 2.0 0.00 0.00 0.00 66 1020.7
20200531082105 62 262 1.0 4.0 0.00 0.00 0.00 66 1020.7
20200531081101 61 0.0 1.0 0.00 0.00 0.00 68 1020.6
20200531080058 61 187 1.0 4.0 0.00 0.00 0.00 67 1020.6
20200531075054 61 0.0 1.0 0.00 0.00 0.00 67 1020.6
20200531074050 61 0 0.0 2.0 0.00 0.00 0.00 68 1020.6
20200531073049 61 135 0.0 2.0 0.00 0.00 0.00 70 1020.6
20200531072042 59 0 1.0 2.0 0.00 0.00 0.00 71 1020.7
20200531071037 58 259 1.0 2.0 0.00 0.00 0.00 72 1020.6
20200531070034 57 0.0 0.0 0.00 0.00 0.00 72 1020.7
20200531065029 57 270 0.0 3.0 0.00 0.00 0.00 72 1020.7
20200531064025 56 0 0.0 3.0 0.00 0.00 0.00 72 1020.8
20200531063021 56 255 1.0 5.0 0.00 0.00 0.00 72 1020.6
20200531062017 56 235 1.0 2.0 0.00 0.00 0.00 72 1020.5
20200531061113 56 135 0.0 2.0 0.00 0.00 0.00 73 1020.6
20200531060109 56 135 0.0 2.0 0.00 0.00 0.00 71 1020.7
20200531055105 56 315 0.0 2.0 0.00 0.00 0.00 71 1020.6
20200531054101 56 328 1.0 6.0 0.00 0.00 0.00 73 1020.5
20200531053057 54 0.0 1.0 0.00 0.00 0.00 77 1020.5
20200531052053 54 315 0.0 2.0 0.00 0.00 0.00 80 1020.5
20200531051049 53 0.0 1.0 0.00 0.00 0.00 80 1020.4
20200531050045 53 0.0 1.0 0.00 0.00 0.00 82 1020.5
20200531045041 52 225 1.0 2.0 0.00 0.00 0.00 84 1020.5
20200531044037 51 0.0 1.0 0.00 0.00 0.00 86 1020.4
20200531043033 51 0.0 0.0 0.00 0.00 0.00 88 1020.4
20200531042030 50 0.0 1.0 0.00 0.00 0.00 90 1020.4
20200531041026 50 0.0 1.0 0.00 0.00 0.00 91 1020.4
20200531040022 49 0.0 1.0 0.00 0.00 0.00 93 1020.4
20200531035018 49 0.0 1.0 0.00 0.00 0.00 93 1020.4
20200531034114 48 0.0 1.0 0.00 0.00 0.00 94 1020.5
20200531033110 48 0.0 0.0 0.00 0.00 0.00 93 1020.6
20200531032106 47 0.0 0.0 0.00 0.00 0.00 92 1020.5
20200531031103 47 0.0 0.0 0.00 0.00 0.00 92 1020.5
20200531030059 47 0.0 0.0 0.00 0.00 0.00 92 1020.5
20200531025055 46 0.0 0.0 0.00 0.00 0.00 91 1020.7
20200531024051 46 0.0 0.0 0.00 0.00 0.00 91 1020.7
20200531023047 46 0.0 0.0 0.00 0.00 0.00 90 1020.8
20200531022044 46 0.0 0.0 0.00 0.00 0.00 90 1020.9
20200531021040 46 0.0 0.0 0.00 0.00 0.00 90 1020.9
20200531020036 47 0.0 0.0 0.00 0.00 0.00 90 1021.0
20200531015032 47 0.0 0.0 0.00 0.00 0.00 90 1021.1
20200531014028 47 0.0 0.0 0.00 0.00 0.00 89 1021.2
20200531013024 47 0.0 0.0 0.00 0.00 0.00 88 1021.3
20200531012021 47 0.0 0.0 0.00 0.00 0.00 87 1021.4
20200531011016 46 0.0 0.0 0.00 0.00 0.00 86 1021.5
20200531010113 47 0.0 0.0 0.00 0.00 0.00 85 1021.6
20200531005113 47 0.0 0.0 0.00 0.00 0.00 84 1021.8
20200531004105 47 0.0 0.0 0.00 0.00 0.00 84 1021.9
20200531003101 47 0.0 0.0 0.00 0.00 0.00 83 1021.9
20200531002057 48 0.0 0.0 0.00 0.00 0.00 83 1022.0
20200531001053 48 0.0 0.0 0.00 0.00 0.00 83 1022.0
20200531000049 48 0.0 0.0 0.00 0.00 0.00 83 1021.9
20200530235046 48 0.0 0.0 0.00 0.00 0.00 82 1022.0
20200530234042 48 0.0 0.0 0.00 0.00 0.00 82 1022.0
20200530233038 48 0.0 0.0 0.00 0.00 0.00 81 1021.9
20200530232034 48 0.0 0.0 0.00 0.00 0.00 80 1021.9
20200530231030 48 0.0 0.0 0.00 0.00 0.00 80 1022.0
20200530230026 48 0.0 0.0 0.00 0.00 0.00 78 1021.9
20200530225022 48 0.0 0.0 0.00 0.00 0.00 77 1022.0
20200530224018 48 0.0 0.0 0.00 0.00 0.00 76 1022.1
20200530223115 49 0.0 0.0 0.00 0.00 0.00 74 1022.1
20200530222111 49 0.0 0.0 0.00 0.00 0.00 74 1022.0
20200530221107 50 0.0 0.0 0.00 0.00 0.00 74 1022.1
20200530220103 50 0.0 0.0 0.00 0.00 0.00 73 1022.1
20200530215059 50 0.0 0.0 0.00 0.00 0.00 73 1022.0
20200530214055 50 0.0 0.0 0.00 0.00 0.00 72 1021.9
20200530213051 50 0.0 0.0 0.00 0.00 0.00 72 1022.0
20200530212048 51 0.0 0.0 0.00 0.00 0.00 72 1021.9
20200530211044 51 0.0 0.0 0.00 0.00 0.00 71 1022.0
20200530210039 51 0.0 1.0 0.00 0.00 0.00 71 1022.0
20200530205036 52 0.0 0.0 0.00 0.00 0.00 70 1021.9
20200530204031 52 0.0 1.0 0.00 0.00 0.00 70 1021.9
20200530203027 52 0.0 1.0 0.00 0.00 0.00 69 1021.8
20200530202024 52 0.0 0.0 0.00 0.00 0.00 69 1021.9
20200530201020 53 0.0 0.0 0.00 0.00 0.00 67 1021.9
20200530200017 53 0.0 0.0 0.00 0.00 0.00 67 1022.0
20200530195113 54 0 1.0 4.0 0.00 0.00 0.00 67 1021.9
20200530194109 54 0.0 0.0 0.00 0.00 0.00 66 1021.9
20200530193105 55 315 0.0 2.0 0.00 0.00 0.00 62 1021.8
20200530192101 55 0.0 1.0 0.00 0.00 0.00 62 1021.8
20200530191057 56 0.0 1.0 0.00 0.00 0.00 61 1021.6
20200530190053 56 270 0.0 2.0 0.00 0.00 0.00 60 1021.5
20200530185049 57 0.0 0.0 0.00 0.00 0.00 60 1021.5
20200530184044 58 90 0.0 2.0 0.00 0.00 0.00 58 1021.4
20200530183040 59 0.0 2.0 0.00 0.00 0.00 55 1021.5
20200530182037 59 0 0.0 2.0 0.00 0.00 0.00 53 1021.3
20200530181033 61 0.0 1.0 0.00 0.00 0.00 49 1021.3
20200530180028 62 0.0 1.0 0.00 0.00 0.00 47 1021.2
20200530175025 63 0.0 1.0 0.00 0.00 0.00 47 1021.2
20200530174020 64 180 1.0 3.0 0.00 0.00 0.00 42 1021.3
20200530173017 65 48 1.0 2.0 0.00 0.00 0.00 40 1021.4
20200530172112 66 0.0 2.0 0.00 0.00 0.00 40 1021.3
20200530171108 66 315 0.0 2.0 0.00 0.00 0.00 42 1021.4
20200530170105 65 292 1.0 4.0 0.00 0.00 0.00 41 1021.3
20200530165100 65 293 1.0 3.0 0.00 0.00 0.00 43 1021.4